| time (UTC) | temp F | wind direction | speed knots | gust knots | rain 1hr in | rain 24hr in | rain mn in | humidity % | barometer mb |
| 20260505152910 | 69 | 251 | 1.7 | 3.5 | 0.00 | 0.00 | 0.00 | 60 | 1003.2 |
| 20260505152408 | 68 | 109 | 1.7 | 7.8 | 0.00 | 0.00 | 0.00 | 58 | 1003.1 |
| 20260505151907 | 69 | 348 | 5.2 | 12.2 | 0.00 | 0.00 | 0.00 | 58 | 1003.1 |
| 20260505151404 | 69 | 157 | 2.6 | 3.5 | 0.00 | 0.00 | 0.00 | 59 | 1003.1 |
| 20260505150901 | 69 | 299 | 3.5 | 6.1 | 0.00 | 0.00 | 0.00 | 56 | 1003.0 |
| 20260505150353 | 68 | 287 | 3.5 | 8.7 | 0.00 | 0.00 | 0.00 | 56 | 1003.1 |
| 20260505140317 | 67 | 257 | 3.5 | 5.2 | 0.00 | 0.00 | 0.00 | 56 | 1003.3 |
| 20260505130240 | 63 | 267 | 0.9 | 1.7 | 0.00 | 0.00 | 0.00 | 60 | 1003.7 |
| 20260505124731 | 63 | 189 | 2.6 | 3.5 | 0.00 | 0.00 | 0.00 | 62 | 1004.2 |
| 20260505124227 | 62 | 359 | 1.7 | 1.7 | 0.00 | 0.00 | 0.00 | 63 | 1003.9 |
| 20260505123723 | 61 | 220 | 2.6 | 3.5 | 0.00 | 0.00 | 0.00 | 65 | 1004.1 |
| 20260505123220 | 60 | 322 | 1.7 | 1.7 | 0.00 | 0.00 | 0.00 | 66 | 1004.0 |
| 20260505122716 | 60 | 215 | 3.5 | 5.2 | 0.00 | 0.00 | 0.00 | 68 | 1004.2 |
| 20260505122214 | 60 | 316 | 1.7 | 1.7 | 0.00 | 0.00 | 0.00 | 68 | 1003.9 |
| 20260505121710 | 59 | 295 | 3.5 | 7.0 | 0.00 | 0.00 | 0.00 | 67 | 1004.0 |
| 20260505121207 | 59 | 75 | 0.9 | 2.6 | 0.00 | 0.00 | 0.00 | 71 | 1003.9 |
| 20260505120703 | 59 | 141 | 3.5 | 5.2 | 0.00 | 0.00 | 0.00 | 68 | 1004.3 |
| 20260505120200 | 59 | 110 | 0.9 | 3.5 | 0.00 | 0.00 | 0.00 | 72 | 1004.3 |
| 20260505115659 | 59 | 182 | 0.9 | 0.9 | 0.00 | 0.00 | 0.00 | 71 | 1004.2 |
| 20260505115157 | 58 | 199 | 2.6 | 3.5 | 0.00 | 0.00 | 0.00 | 71 | 1004.4 |
| 20260505114654 | 57 | 231 | 3.5 | 3.5 | 0.00 | 0.00 | 0.00 | 71 | 1004.5 |
| 20260505114150 | 56 | 125 | 1.7 | 1.7 | 0.00 | 0.00 | 0.00 | 73 | 1004.4 |
| 20260505113646 | 56 | 194 | 4.3 | 5.2 | 0.00 | 0.00 | 0.00 | 74 | 1004.3 |
| 20260505113143 | 56 | 177 | 2.6 | 6.1 | 0.00 | 0.00 | 0.00 | 74 | 1004.2 |
| 20260505112640 | 56 | 217 | 0.9 | 1.7 | 0.00 | 0.00 | 0.00 | 75 | 1004.1 |
| 20260505112138 | 55 | 114 | 1.7 | 2.6 | 0.00 | 0.00 | 0.00 | 77 | 1004.1 |
| 20260505111631 | 54 | 282 | 2.6 | 3.5 | 0.00 | 0.00 | 0.00 | 77 | 1004.2 |
| 20260505111127 | 53 | 282 | 0.9 | 1.7 | 0.00 | 0.00 | 0.00 | 81 | 1004.2 |
| 20260505110624 | 52 | 68 | 0.0 | 1.7 | 0.00 | 0.00 | 0.00 | 84 | 1004.2 |
| 20260505110121 | 50 | 344 | 0.0 | 0.9 | 0.00 | 0.00 | 0.00 | 93 | 1004.0 |
| 20260505102057 | 43 | 343 | 0.0 | 0.0 | 0.00 | 0.00 | 0.00 | 99 | 1004.1 |
| 20260505101555 | 42 | 352 | 0.0 | 0.9 | 0.00 | 0.00 | 0.00 | 99 | 1004.0 |
| 20260505101051 | 41 | 339 | 0.0 | 0.0 | 0.00 | 0.00 | 0.00 | 99 | 1004.2 |
| 20260505100548 | 41 | 337 | 0.0 | 0.0 | 0.00 | 0.00 | 0.00 | 99 | 1004.3 |
| 20260505100044 | 41 | 337 | 0.0 | 0.0 | 0.00 | 0.00 | 0.00 | 99 | 1004.1 |
| 20260505095541 | 41 | 336 | 0.0 | 0.0 | 0.00 | 0.00 | 0.00 | 99 | 1004.1 |
| 20260505095037 | 41 | 335 | 0.0 | 0.0 | 0.00 | 0.00 | 0.00 | 99 | 1004.1 |
| 20260505094534 | 40 | 338 | 0.0 | 0.0 | 0.00 | 0.00 | 0.00 | 99 | 1004.1 |
| 20260505094030 | 40 | 340 | 0.0 | 0.0 | 0.00 | 0.00 | 0.00 | 99 | 1004.0 |
| 20260505093526 | 40 | 336 | 0.0 | 0.0 | 0.00 | 0.00 | 0.00 | 99 | 1003.9 |
| 20260505093024 | 40 | 342 | 0.0 | 0.0 | 0.00 | 0.00 | 0.00 | 99 | 1003.8 |
| 20260505092521 | 40 | 319 | 0.9 | 0.9 | 0.00 | 0.00 | 0.00 | 99 | 1003.7 |
| 20260505092020 | 39 | 349 | 0.0 | 0.0 | 0.00 | 0.00 | 0.00 | 99 | 1003.7 |
| 20260505091516 | 39 | 328 | 0.0 | 0.0 | 0.00 | 0.00 | 0.00 | 99 | 1003.9 |
| 20260505091014 | 39 | 339 | 0.0 | 0.0 | 0.00 | 0.00 | 0.00 | 99 | 1003.9 |
| 20260505090512 | 39 | 342 | 0.0 | 0.0 | 0.00 | 0.00 | 0.00 | 99 | 1004.0 |
| 20260505090009 | 39 | 342 | 0.0 | 0.0 | 0.00 | 0.00 | 0.00 | 99 | 1004.0 |
| 20260505085508 | 39 | 333 | 0.0 | 0.0 | 0.00 | 0.00 | 0.00 | 99 | 1004.1 |
| 20260505085005 | 39 | 340 | 0.0 | 0.0 | 0.00 | 0.00 | 0.00 | 99 | 1004.0 |
| 20260505084503 | 39 | 340 | 0.0 | 0.0 | 0.00 | 0.00 | 0.00 | 99 | 1003.9 |
| 20260505084001 | 39 | 303 | 0.0 | 0.0 | 0.00 | 0.00 | 0.00 | 99 | 1004.0 |
| 20260505083458 | 40 | 339 | 0.0 | 0.0 | 0.00 | 0.00 | 0.00 | 99 | 1004.0 |
| 20260505082954 | 39 | 316 | 0.9 | 1.7 | 0.00 | 0.00 | 0.00 | 99 | 1004.1 |
| 20260505082450 | 38 | 341 | 0.0 | 0.0 | 0.00 | 0.00 | 0.00 | 99 | 1004.1 |
| 20260505081947 | 38 | 341 | 0.0 | 0.0 | 0.00 | 0.00 | 0.00 | 99 | 1004.2 |
| 20260505081444 | 38 | 342 | 0.0 | 0.0 | 0.00 | 0.00 | 0.00 | 99 | 1004.1 |
| 20260505080940 | 37 | 337 | 0.0 | 0.0 | 0.00 | 0.00 | 0.00 | 99 | 1004.0 |
| 20260505080436 | 37 | 339 | 0.0 | 0.0 | 0.00 | 0.00 | 0.00 | 99 | 1003.9 |
| 20260505075932 | 37 | 338 | 0.0 | 0.0 | 0.00 | 0.00 | 0.00 | 99 | 1004.0 |
| 20260505075429 | 37 | 338 | 0.0 | 0.0 | 0.00 | 0.00 | 0.00 | 99 | 1004.1 |
| 20260505074926 | 37 | 338 | 0.0 | 0.0 | 0.00 | 0.00 | 0.00 | 99 | 1003.9 |
| 20260505074424 | 36 | 338 | 0.0 | 0.0 | 0.00 | 0.00 | 0.00 | 99 | 1004.0 |
| 20260505073921 | 37 | 337 | 0.0 | 0.0 | 0.00 | 0.00 | 0.00 | 99 | 1004.1 |
| 20260505073419 | 37 | 337 | 0.0 | 0.0 | 0.00 | 0.00 | 0.00 | 99 | 1003.9 |
| 20260505072915 | 37 | 337 | 0.0 | 0.0 | 0.00 | 0.00 | 0.00 | 99 | 1004.0 |
| 20260505072411 | 37 | 340 | 0.0 | 0.0 | 0.00 | 0.00 | 0.00 | 99 | 1004.2 |
| 20260505071908 | 37 | 344 | 0.0 | 0.0 | 0.00 | 0.00 | 0.00 | 99 | 1004.1 |
| 20260505071404 | 37 | 344 | 0.0 | 0.0 | 0.00 | 0.00 | 0.00 | 99 | 1004.2 |
| 20260505070902 | 37 | 344 | 0.0 | 0.0 | 0.00 | 0.00 | 0.00 | 99 | 1004.1 |
| 20260505070358 | 37 | 344 | 0.0 | 0.0 | 0.00 | 0.00 | 0.00 | 99 | 1004.1 |
| 20260505065854 | 37 | 344 | 0.0 | 0.0 | 0.00 | 0.00 | 0.00 | 99 | 1004.0 |
| 20260505065351 | 37 | 344 | 0.0 | 0.0 | 0.00 | 0.00 | 0.00 | 99 | 1004.0 |
| 20260505064848 | 37 | 346 | 0.0 | 0.0 | 0.00 | 0.00 | 0.00 | 99 | 1004.0 |
| 20260505064345 | 37 | 344 | 0.0 | 0.0 | 0.00 | 0.00 | 0.00 | 99 | 1004.1 |
| 20260505063843 | 37 | 344 | 0.0 | 0.0 | 0.00 | 0.00 | 0.00 | 99 | 1004.0 |
| 20260505063338 | 37 | 344 | 0.0 | 0.0 | 0.00 | 0.00 | 0.00 | 99 | 1003.9 |
| 20260505062835 | 37 | 345 | 0.0 | 0.0 | 0.00 | 0.00 | 0.00 | 99 | 1003.9 |
| 20260505062333 | 37 | 344 | 0.0 | 0.0 | 0.00 | 0.00 | 0.00 | 99 | 1003.9 |
| 20260505061829 | 37 | 347 | 0.0 | 0.0 | 0.00 | 0.00 | 0.00 | 99 | 1003.9 |
| 20260505061328 | 37 | 346 | 0.0 | 0.0 | 0.00 | 0.00 | 0.00 | 99 | 1004.0 |
| 20260505060825 | 37 | 347 | 0.0 | 0.0 | 0.00 | 0.00 | 0.00 | 99 | 1004.0 |
| 20260505060322 | 37 | 345 | 0.0 | 0.0 | 0.00 | 0.00 | 0.00 | 99 | 1003.9 |
| 20260505055817 | 37 | 344 | 0.0 | 0.0 | 0.00 | 0.00 | 0.00 | 99 | 1003.9 |
| 20260505055313 | 37 | 344 | 0.0 | 0.0 | 0.00 | 0.00 | 0.00 | 99 | 1003.9 |
| 20260505054811 | 38 | 350 | 0.0 | 0.0 | 0.00 | 0.00 | 0.00 | 99 | 1004.0 |
| 20260505054308 | 38 | 345 | 0.0 | 0.0 | 0.00 | 0.00 | 0.00 | 99 | 1004.1 |
| 20260505053807 | 38 | 345 | 0.0 | 0.0 | 0.00 | 0.00 | 0.00 | 99 | 1003.9 |
| 20260505053303 | 38 | 345 | 0.0 | 0.0 | 0.00 | 0.00 | 0.00 | 99 | 1004.0 |
| 20260505052800 | 38 | 345 | 0.0 | 0.0 | 0.00 | 0.00 | 0.00 | 99 | 1003.8 |
| 20260505052257 | 38 | 349 | 0.0 | 0.0 | 0.00 | 0.00 | 0.00 | 99 | 1003.6 |
| 20260505051754 | 39 | 342 | 0.0 | 0.0 | 0.00 | 0.00 | 0.00 | 99 | 1003.7 |
| 20260505051252 | 39 | 342 | 0.0 | 0.0 | 0.00 | 0.00 | 0.00 | 99 | 1003.7 |
| 20260505050749 | 39 | 346 | 0.0 | 0.0 | 0.00 | 0.00 | 0.00 | 99 | 1003.6 |
| 20260505050248 | 39 | 347 | 0.0 | 0.0 | 0.00 | 0.00 | 0.00 | 99 | 1003.6 |
| 20260505041718 | 40 | 346 | 0.0 | 0.0 | 0.00 | 0.00 | 0.00 | 99 | 1003.8 |
| 20260505041215 | 40 | 341 | 0.0 | 0.0 | 0.00 | 0.00 | 0.00 | 99 | 1003.6 |
| 20260505040712 | 41 | 335 | 0.0 | 0.0 | 0.00 | 0.00 | 0.00 | 99 | 1003.5 |
| 20260505040209 | 41 | 349 | 0.0 | 0.0 | 0.00 | 0.00 | 0.00 | 99 | 1003.8 |
| 20260505035706 | 41 | 346 | 0.0 | 0.0 | 0.00 | 0.00 | 0.00 | 99 | 1003.5 |
| 20260505035203 | 41 | 349 | 0.0 | 0.0 | 0.00 | 0.00 | 0.00 | 99 | 1003.8 |
| 20260505034659 | 41 | 351 | 0.0 | 0.0 | 0.00 | 0.00 | 0.00 | 99 | 1003.7 |
| 20260505034156 | 41 | 349 | 0.0 | 0.0 | 0.00 | 0.00 | 0.00 | 99 | 1003.7 |
| 20260505033652 | 42 | 351 | 0.0 | 0.0 | 0.00 | 0.00 | 0.00 | 98 | 1003.8 |
| 20260505033151 | 43 | 351 | 0.0 | 0.0 | 0.00 | 0.00 | 0.00 | 99 | 1003.5 |
| 20260505032648 | 42 | 351 | 0.0 | 0.0 | 0.00 | 0.00 | 0.00 | 98 | 1003.6 |
| 20260505032144 | 42 | 342 | 0.0 | 0.0 | 0.00 | 0.00 | 0.00 | 98 | 1003.5 |
| 20260505031642 | 42 | 339 | 0.0 | 0.0 | 0.00 | 0.00 | 0.00 | 98 | 1003.4 |
| 20260505031138 | 43 | 350 | 0.0 | 0.0 | 0.00 | 0.00 | 0.00 | 98 | 1003.4 |
| 20260505030635 | 42 | 349 | 0.0 | 0.0 | 0.00 | 0.00 | 0.00 | 98 | 1003.7 |
| 20260505030131 | 43 | 348 | 0.0 | 0.0 | 0.00 | 0.00 | 0.00 | 98 | 1003.6 |
| 20260505025627 | 44 | 348 | 0.0 | 0.0 | 0.00 | 0.00 | 0.00 | 97 | 1003.9 |
| 20260505025126 | 44 | 348 | 0.0 | 0.0 | 0.00 | 0.00 | 0.00 | 97 | 1003.8 |
| 20260505024623 | 44 | 348 | 0.0 | 0.0 | 0.00 | 0.00 | 0.00 | 97 | 1003.8 |
| 20260505024120 | 44 | 337 | 0.0 | 0.0 | 0.00 | 0.00 | 0.00 | 96 | 1004.0 |
| 20260505023617 | 45 | 348 | 0.0 | 0.0 | 0.00 | 0.00 | 0.00 | 96 | 1003.7 |
| 20260505023115 | 45 | 348 | 0.0 | 0.0 | 0.00 | 0.00 | 0.00 | 95 | 1003.7 |
| 20260505022612 | 46 | 350 | 0.0 | 0.0 | 0.00 | 0.00 | 0.00 | 95 | 1003.9 |
| 20260505022109 | 46 | 349 | 0.0 | 0.0 | 0.00 | 0.00 | 0.00 | 95 | 1004.0 |
| 20260505021605 | 46 | 345 | 0.0 | 0.0 | 0.00 | 0.00 | 0.00 | 95 | 1003.7 |
| 20260505021102 | 46 | 345 | 0.0 | 0.0 | 0.00 | 0.00 | 0.00 | 95 | 1003.9 |
| 20260505020602 | 46 | 344 | 0.0 | 0.0 | 0.00 | 0.00 | 0.00 | 95 | 1004.0 |
| 20260505020059 | 46 | 345 | 0.0 | 0.0 | 0.00 | 0.00 | 0.00 | 95 | 1003.9 |
| 20260505015556 | 46 | 340 | 0.0 | 0.0 | 0.00 | 0.00 | 0.00 | 95 | 1003.9 |
| 20260505015053 | 46 | 342 | 0.0 | 0.0 | 0.00 | 0.00 | 0.00 | 95 | 1003.9 |
| 20260505014550 | 46 | 346 | 0.0 | 0.0 | 0.00 | 0.00 | 0.00 | 95 | 1003.8 |
| 20260505014047 | 47 | 349 | 0.0 | 0.0 | 0.00 | 0.00 | 0.00 | 94 | 1003.9 |
| 20260505013544 | 47 | 347 | 0.0 | 0.0 | 0.00 | 0.00 | 0.00 | 94 | 1003.6 |
| 20260505013041 | 47 | 337 | 0.0 | 0.0 | 0.00 | 0.00 | 0.00 | 94 | 1003.6 |
| 20260505012539 | 47 | 342 | 0.0 | 0.0 | 0.00 | 0.00 | 0.00 | 93 | 1003.8 |
| 20260505012036 | 46 | 1 | 0.0 | 0.0 | 0.00 | 0.00 | 0.00 | 94 | 1003.7 |
| 20260505011537 | 46 | 345 | 0.0 | 0.0 | 0.00 | 0.00 | 0.00 | 96 | 1003.8 |
| 20260505011034 | 46 | 348 | 0.0 | 0.0 | 0.00 | 0.00 | 0.00 | 96 | 1003.6 |
| 20260505010529 | 46 | 339 | 0.0 | 0.0 | 0.00 | 0.00 | 0.00 | 95 | 1003.5 |
| 20260505010026 | 46 | 338 | 0.0 | 0.0 | 0.00 | 0.00 | 0.00 | 95 | 1003.4 |
| 20260505005523 | 46 | 344 | 0.0 | 0.0 | 0.00 | 0.00 | 0.00 | 94 | 1003.0 |
| 20260505005021 | 47 | 344 | 0.0 | 0.0 | 0.00 | 0.00 | 0.00 | 94 | 1003.1 |
| 20260505004517 | 47 | 343 | 0.0 | 0.0 | 0.00 | 0.00 | 0.00 | 94 | 1002.8 |
| 20260505004014 | 47 | 352 | 0.0 | 0.0 | 0.00 | 0.00 | 0.00 | 93 | 1002.9 |
| 20260505003511 | 47 | 353 | 0.0 | 0.0 | 0.00 | 0.00 | 0.00 | 93 | 1002.7 |
| 20260505003008 | 47 | 348 | 0.0 | 0.0 | 0.00 | 0.00 | 0.00 | 93 | 1002.7 |
| 20260505002503 | 48 | 348 | 0.0 | 0.0 | 0.00 | 0.00 | 0.00 | 92 | 1002.6 |
| 20260505002002 | 48 | 348 | 0.0 | 0.0 | 0.00 | 0.00 | 0.00 | 91 | 1002.6 |
| 20260505001459 | 49 | 346 | 0.0 | 0.0 | 0.00 | 0.00 | 0.00 | 91 | 1002.5 |
| 20260505000956 | 49 | 346 | 0.0 | 0.0 | 0.00 | 0.00 | 0.00 | 90 | 1002.6 |
| 20260505000454 | 49 | 344 | 0.0 | 0.0 | 0.00 | 0.00 | 0.00 | 90 | 1002.7 |
| 20260504235951 | 50 | 344 | 0.0 | 0.0 | 0.00 | 0.00 | 0.00 | 89 | 1002.6 |
| 20260504235448 | 50 | 342 | 0.0 | 0.0 | 0.00 | 0.00 | 0.00 | 87 | 1002.6 |
| 20260504234944 | 50 | 342 | 0.0 | 0.0 | 0.00 | 0.00 | 0.00 | 87 | 1002.5 |
| 20260504234442 | 51 | 348 | 0.0 | 0.0 | 0.00 | 0.00 | 0.00 | 85 | 1002.2 |
| 20260504233938 | 51 | 348 | 0.0 | 0.0 | 0.00 | 0.00 | 0.00 | 85 | 1002.3 |
| 20260504233434 | 51 | 348 | 0.0 | 0.0 | 0.00 | 0.00 | 0.00 | 84 | 1002.1 |
| 20260504232931 | 52 | 348 | 0.0 | 0.0 | 0.00 | 0.00 | 0.00 | 82 | 1002.0 |
| 20260504232428 | 53 | 342 | 0.0 | 0.0 | 0.00 | 0.00 | 0.00 | 81 | 1002.0 |
| 20260504231925 | 53 | 342 | 0.0 | 0.0 | 0.00 | 0.00 | 0.00 | 79 | 1002.1 |
| 20260504231421 | 54 | 351 | 0.0 | 0.0 | 0.00 | 0.00 | 0.00 | 77 | 1002.0 |
| 20260504230918 | 55 | 353 | 0.0 | 0.0 | 0.00 | 0.00 | 0.00 | 76 | 1002.0 |
| 20260504230415 | 55 | 344 | 0.0 | 0.0 | 0.00 | 0.00 | 0.00 | 74 | 1001.7 |
| 20260504225914 | 56 | 339 | 0.0 | 0.0 | 0.00 | 0.00 | 0.00 | 73 | 1001.9 |
| 20260504225410 | 57 | 351 | 0.0 | 0.0 | 0.00 | 0.00 | 0.00 | 74 | 1001.9 |
| 20260504224908 | 57 | 339 | 0.0 | 0.0 | 0.00 | 0.00 | 0.00 | 68 | 1002.0 |
| 20260504224404 | 58 | 324 | 0.0 | 1.7 | 0.00 | 0.00 | 0.00 | 69 | 1001.6 |
| 20260504223901 | 58 | 331 | 0.9 | 0.9 | 0.00 | 0.00 | 0.00 | 66 | 1001.7 |
| 20260504223356 | 59 | 9 | 0.9 | 2.6 | 0.00 | 0.00 | 0.00 | 63 | 1001.6 |
| 20260504222853 | 59 | 260 | 2.6 | 3.5 | 0.00 | 0.00 | 0.00 | 62 | 1001.5 |
| 20260504222349 | 59 | 347 | 0.9 | 2.6 | 0.00 | 0.00 | 0.00 | 61 | 1001.6 |
| 20260504221848 | 60 | 304 | 0.9 | 7.0 | 0.00 | 0.00 | 0.00 | 61 | 1001.6 |
| 20260504221344 | 60 | 284 | 1.7 | 1.7 | 0.00 | 0.00 | 0.00 | 64 | 1001.5 |
| 20260504220842 | 60 | 344 | 1.7 | 2.6 | 0.00 | 0.00 | 0.00 | 59 | 1001.6 |
| 20260504220338 | 60 | 289 | 0.9 | 2.6 | 0.00 | 0.00 | 0.00 | 63 | 1001.5 |
| 20260504215836 | 60 | 251 | 3.5 | 6.1 | 0.00 | 0.00 | 0.00 | 59 | 1001.6 |
| 20260504215332 | 60 | 300 | 0.0 | 7.0 | 0.00 | 0.00 | 0.00 | 64 | 1001.6 |
| 20260504214828 | 60 | 325 | 0.0 | 2.6 | 0.00 | 0.00 | 0.00 | 61 | 1001.6 |
| 20260504214325 | 61 | 224 | 2.6 | 3.5 | 0.00 | 0.00 | 0.00 | 58 | 1001.6 |
| 20260504213822 | 61 | 359 | 2.6 | 2.6 | 0.00 | 0.00 | 0.00 | 58 | 1001.2 |
| 20260504213317 | 61 | 359 | 6.1 | 9.6 | 0.00 | 0.00 | 0.00 | 58 | 1001.3 |
| 20260504212815 | 60 | 315 | 1.7 | 2.6 | 0.00 | 0.00 | 0.00 | 60 | 1001.3 |
| 20260504212311 | 60 | 125 | 2.6 | 7.0 | 0.00 | 0.00 | 0.00 | 59 | 1001.4 |
| 20260504211809 | 60 | 35 | 1.7 | 2.6 | 0.00 | 0.00 | 0.00 | 60 | 1001.4 |
| 20260504211305 | 61 | 276 | 3.5 | 8.7 | 0.00 | 0.00 | 0.00 | 58 | 1001.2 |
| 20260504210803 | 62 | 272 | 0.9 | 3.5 | 0.00 | 0.00 | 0.00 | 59 | 1001.3 |
| 20260504210259 | 62 | 335 | 1.7 | 3.5 | 0.00 | 0.00 | 0.00 | 57 | 1001.2 |
| 20260504205757 | 61 | 224 | 3.5 | 5.2 | 0.00 | 0.00 | 0.00 | 60 | 1001.1 |
| 20260504205254 | 62 | 256 | 1.7 | 7.8 | 0.00 | 0.00 | 0.00 | 59 | 1001.0 |
| 20260504204752 | 62 | 266 | 6.1 | 7.8 | 0.00 | 0.00 | 0.00 | 56 | 1001.0 |
| 20260504204250 | 61 | 337 | 0.0 | 3.5 | 0.00 | 0.00 | 0.00 | 60 | 1000.9 |
| 20260504203749 | 63 | 356 | 0.0 | 2.6 | 0.00 | 0.00 | 0.00 | 59 | 1001.0 |
| 20260504203246 | 62 | 337 | 0.9 | 2.6 | 0.00 | 0.00 | 0.00 | 64 | 1001.0 |
| 20260504202741 | 61 | 321 | 2.6 | 5.2 | 0.00 | 0.00 | 0.00 | 60 | 1000.8 |
| 20260504202239 | 60 | 38 | 2.6 | 6.1 | 0.00 | 0.00 | 0.00 | 65 | 1001.1 |
| 20260504201736 | 60 | 291 | 0.9 | 5.2 | 0.00 | 0.00 | 0.00 | 65 | 1001.0 |
| 20260504201233 | 60 | 332 | 4.3 | 6.1 | 0.00 | 0.00 | 0.00 | 66 | 1000.8 |
| 20260504200731 | 60 | 317 | 0.9 | 2.6 | 0.00 | 0.00 | 0.00 | 66 | 1000.9 |
| 20260504200226 | 60 | 296 | 0.0 | 0.0 | 0.00 | 0.00 | 0.00 | 63 | 1000.6 |
| 20260504195723 | 60 | 57 | 1.7 | 5.2 | 0.00 | 0.00 | 0.00 | 61 | 1000.6 |
| 20260504195219 | 60 | 273 | 2.6 | 8.7 | 0.00 | 0.00 | 0.00 | 65 | 1000.7 |
| 20260504194716 | 60 | 311 | 2.6 | 3.5 | 0.00 | 0.00 | 0.00 | 63 | 1000.7 |
| 20260504194212 | 61 | 342 | 0.0 | 1.7 | 0.00 | 0.00 | 0.00 | 63 | 1000.7 |
| 20260504193709 | 62 | 336 | 0.9 | 5.2 | 0.00 | 0.00 | 0.00 | 62 | 1000.8 |
| 20260504193207 | 63 | 177 | 2.6 | 7.0 | 0.00 | 0.00 | 0.00 | 59 | 1000.8 |
| 20260504192705 | 62 | 241 | 6.1 | 9.6 | 0.00 | 0.00 | 0.00 | 60 | 1000.7 |
| 20260504192202 | 62 | 316 | 2.6 | 2.6 | 0.00 | 0.00 | 0.00 | 62 | 1000.8 |
| 20260504191701 | 62 | 344 | 0.9 | 3.5 | 0.00 | 0.00 | 0.00 | 61 | 1000.7 |
| 20260504191157 | 60 | 268 | 5.2 | 7.8 | 0.00 | 0.00 | 0.00 | 62 | 1000.7 |
| 20260504190652 | 59 | 162 | 0.9 | 6.1 | 0.00 | 0.00 | 0.00 | 65 | 1000.9 |
| 20260504190149 | 58 | 353 | 0.9 | 5.2 | 0.00 | 0.00 | 0.00 | 67 | 1001.1 |
| 20260504185646 | 58 | 302 | 4.3 | 9.6 | 0.00 | 0.00 | 0.00 | 66 | 1000.8 |
| 20260504185142 | 58 | 282 | 1.7 | 7.0 | 0.00 | 0.00 | 0.00 | 66 | 1001.1 |
| 20260504184638 | 59 | 353 | 1.7 | 2.6 | 0.00 | 0.00 | 0.00 | 63 | 1001.3 |
| 20260504184133 | 58 | 279 | 7.8 | 11.3 | 0.00 | 0.00 | 0.00 | 64 | 1000.9 |
| 20260504183630 | 58 | 167 | 2.6 | 6.1 | 0.00 | 0.00 | 0.00 | 64 | 1001.3 |
| 20260504183128 | 58 | 244 | 4.3 | 8.7 | 0.00 | 0.00 | 0.00 | 67 | 1001.2 |
| 20260504182625 | 58 | 174 | 2.6 | 3.5 | 0.00 | 0.00 | 0.00 | 64 | 1001.4 |
| 20260504182123 | 57 | 88 | 1.7 | 7.8 | 0.00 | 0.00 | 0.00 | 66 | 1001.2 |
| 20260504181620 | 57 | 70 | 0.9 | 2.6 | 0.00 | 0.00 | 0.00 | 69 | 1001.5 |
| 20260504181117 | 55 | 41 | 0.9 | 2.6 | 0.00 | 0.00 | 0.00 | 71 | 1001.5 |
| 20260504180616 | 55 | 297 | 1.7 | 2.6 | 0.00 | 0.00 | 0.00 | 68 | 1001.5 |
| 20260504180115 | 54 | 190 | 0.9 | 1.7 | 0.00 | 0.00 | 0.00 | 71 | 1001.6 |
| 20260504175612 | 53 | 96 | 1.7 | 3.5 | 0.00 | 0.00 | 0.00 | 71 | 1001.7 |
| 20260504175108 | 53 | 348 | 0.9 | 2.6 | 0.00 | 0.00 | 0.00 | 72 | 1001.6 |
| 20260504174607 | 53 | 227 | 1.7 | 3.5 | 0.00 | 0.00 | 0.00 | 69 | 1001.8 |
| 20260504174102 | 54 | 265 | 1.7 | 1.7 | 0.00 | 0.00 | 0.00 | 69 | 1001.5 |
| 20260504173559 | 54 | 269 | 0.9 | 2.6 | 0.00 | 0.00 | 0.00 | 69 | 1001.5 |
| 20260504173057 | 55 | 154 | 1.7 | 2.6 | 0.00 | 0.00 | 0.00 | 66 | 1001.6 |
| 20260504172553 | 55 | 15 | 0.0 | 2.6 | 0.00 | 0.00 | 0.00 | 64 | 1001.4 |
| 20260504172050 | 55 | 261 | 1.7 | 2.6 | 0.00 | 0.00 | 0.00 | 63 | 1001.2 |
| 20260504171546 | 56 | 0 | 1.7 | 2.6 | 0.00 | 0.00 | 0.00 | 62 | 1001.4 |
| 20260504171044 | 56 | 268 | 0.9 | 1.7 | 0.00 | 0.00 | 0.00 | 61 | 1001.3 |
| 20260504170539 | 57 | 218 | 3.5 | 3.5 | 0.00 | 0.00 | 0.00 | 61 | 1001.2 |